Погода в Шильде

Россия / Оренбургская область     51°48′53″N   59°46′17″E
В апреле 2022 года жителям России запретили посещать сайт meteo.paraplan.net по решению Генеральной прокуратуры. Аудитория сайта уменьшилась в 10 раз. Владельцы сайта не видят смысла в поддержке погодного сервера в таких условиях. Сайт будет закрыт в октябре.
темп.,
°C
ветер,
м/с
пор.,
м/с
влажн.,
%
обл.,
%
осадки,
мм/ч
давл.,
гПа
погр.,
м
29 сентября, чт
чт2923:00+5вюв6848100 0.0 1024563
02:00+4вюв5851100 0.0 1025452
05:00+4юв6846100 0.0 1025474
08:00+3юв6846100 0.1 1026706
11:00+2юв7968100 0.3 1026624
14:00+3юв7856100 0.1 1026653
17:00+4ююв5757100 0.3 1026720
20:00+1юв5897100 1.1 1027366
30 сентября, пт
пт3023:00+1юв5999100 3.3 1027265
02:00+1юв61197100 1.6 1027337
05:00+1юв61097100 2.8 1028425
08:00+1юв61098100 1.5 1029325
11:00+1юв61097100 2.9 1030380
14:00+1юв5999100 1.9 1031330
17:00+1юв4899100 4.3 1031306
20:00+1юв4899100 0.9 1033328
1 октября, сб
сб123:00+2юв4897100 1.1 1033332
02:00+2вюв4991100 0.1 1033363
05:00+3юв41085100 1.2 1033355
08:00+3юв4973100 0.0 1033244
11:00+5юв5961100 0.0 1034366
14:00+5юв5857100 0.0 1033351
17:00+4юв4860100 0.2 1033259
20:00+4юв5959100 0.2 1033206
2 октября, вс
вс223:00+5юв4757100 0.3 1032175
02:00+4ююв4867100 0.3 1032222
05:00+5ююв5971100 0.9 1031234
08:00+5ююв4864100 0.0 1031203
11:00+7ююв4853100 0.0 1031257
14:00+8ююв474799 0.0 1030337
17:00+9ююв364785 0.0 1029195
20:00+7юв3649100 0.0 1029131
3 октября, пн
пн323:00+7ююв364699 0.0 1029131
02:00+7юв364499 0.0 1028115
05:00+7ююв464390 0.0 1028106
08:00+7ююв3542100 0.0 102896
11:00+10ююв343382 0.0 1028275
14:00+12ююв233054 0.0 1028635
17:00+13юв223887 0.0 1027596
20:00+10вюв34455 0.0 102962